Вернуться в каталог

IRIDE-MS2-HEO-2

АктивенНаукаSSO
NORAD 64569·PAYLOAD·🇮🇹 Italy

Запущен Jun 23, 2025 с Vandenberg Space Force Base

Loading…

Ближайшие Пролёты (ближайшие 24 часа)

TLE

СвежийSource: Space-Track

Эпоха: Sep 14, 2026, 14:52 UTC

1 64569U 25135AT  26257.61975807  .00001348  00000-0  13208-3 0  9994
2 64569  97.7827  11.0002 0002994  73.5196 286.6353 14.93930837 67239

Отслеживайте IRIDE-MS2-HEO-2 в реальном времени с AllMySat

Download on the App Store